Location: Misciano
(43.5000°N, 11.9500°E)
Time: 00:11:49
(UTC+00:00)

Genesis I - Pass Details

Date: 13 August 2020
Orbit: 504 x 518 km, 64.5° (Epoch: 23 September)

Event Time Altitude Azimuth Distance (km) Brightness Sun altitude
Rises 19:18:38 0° 326° (NW) 2,623 8.1 -10.7°
Reaches altitude 10° 19:20:49 10° 327° (NNW) 1,736 7.0 -11.0°
Maximum altitude 19:24:42 79° 55° (NE) 526 3.1 -11.6°
Enters shadow 19:27:33 18° 141° (SE) 1,324 4.7 -12.0°
